Location: Carthage
(33.8834°N, 106.6595°W)
Time: 02:42:25
(UTC+00:00)

Cosmos 2322 Rocket - Pass Details

Date: 22 May 2026
Orbit: 831 x 850 km, 71.0° (Epoch: 9 June)

Event Time Altitude Azimuth Distance (km) Brightness Sun altitude
Rises 03:35:01 0° 342° (NNW) 3,407 6.4 -16.5°
Reaches altitude 10° 03:37:29 10° 345° (NNW) 2,472 5.4 -16.9°
Maximum altitude 03:43:08 67° 68° (ENE) 919 2.2 -17.8°
Enters shadow 03:45:52 31° 141° (SE) 1,445 2.8 -18.2°
